Weather in Bialogard

Poland     54°00′49″N   15°58′04″E
temp.,
°C
wind,
m/s
gust,
m/s
humid.,
%
clouds,
%
prec.,
mm/h
press.,
hPa
HPBL,
m
4 march, thu
thu401:00+5wnw498832 0.0 1017356
04:00+2wnw5109524 0.0 1015358
07:00+1wnw489637 0.0 1015334
10:00+3wnw5780100 0.1 1016724
13:00+3wnw4682100 0.2 1015649
16:00+2nnw4691100 0.2 1015462
19:000ne51082100 0.6 1016638
22:00−1nne378456 0.0 1018199
5 march, fri
fri501:00−1n227952 0.0 101928
04:00−1nw227929 0.0 102046
07:00−1wnw367824 0.0 1021138
10:00+3nw68580 0.1 10221233
13:00+3nnw68530 0.3 10241396
16:00+2nnw68620 0.1 10251216
19:00−1nnw22750 0.1 102728
22:00−1wsw33680 0.0 102950
6 march, sat
sat601:00−1w33662 0.0 103066
04:00−1w33690 0.0 103072
07:00−2wsw47740 0.0 1030163
10:00+2wsw57500 0.0 1030807
13:00+4wsw7104232 0.0 10291293
16:00+4w711614 0.0 10261060
19:00+2w6138551 0.0 1025846
22:00+2w7137898 0.0 10241030
7 march, sun
sun701:00+1w8127899 0.1 10221012
04:00+1w81385100 0.0 1021880
07:00+1w81379100 0.1 1019898
10:00+2w91480100 0.1 1018949
13:00+2w91394100 0.3 1018891
16:00+2w81396100 0.7 1016749
19:00+2wnw71197100 1.1 1017636
22:00−1ene228687 1.4 101847
8 march, mon
mon801:00−1w118494 1.4 101921
04:00−2n127930 0.0 102024
07:00−1n246451 0.0 1022136
10:00+2n4547100 0.0 10241101
13:00+3n454489 0.0 10251079
16:00+2n455174 0.0 1025667
19:00−1ne126486 0.0 102623
22:00−2se336970 0.0 102771